Regional Weather Roundup
Issued by NWS

Home | Current Version | Previous Version | Graphics & Text | Print | Product List | Glossary On
Versions: 1 2 3 4 5 6 7 8 9 10 11 12 13 14 15 16 17 18 19 20 21 22 23 24 25 26 27 28 29 30 31 32 33 34 35 36 37 38 39 40 41 42 43 44 45 46 47 48 49 50
000
ASUS43 KMKX 201400
RWRWI

WISCONSIN REGIONAL WEATHER ROUNDUP
NATIONAL WEATHER SERVICE MILWAUKEE/SULLIVAN WI
800 AM CST SAT JAN 20 2018

NOTE: "FAIR" INDICATES FEW OR NO CLOUDS BELOW 12,000 FEET WITH NO
SIGNIFICANT WEATHER AND/OR OBSTRUCTIONS TO VISIBILITY.

WIZ001-002-006>008-014>016-023>028-201500-
NORTHWEST WISCONSIN

CITY           SKY/WX    TMP DP  RH WIND       PRES   REMARKS
SUPERIOR ARPT  FAIR      29  27  93 SW5       29.81R WCI  24
ASHLAND        FAIR      28  26  92 SW8       29.81R WCI  20
HAYWARD        FAIR      17  12  80 CALM      29.81R
SIREN          FAIR      22  21  96 CALM      29.83R
CUMBERLAND     FOG       21  21 100 S5        29.82R VSB 1/4 WCI  15
RICE LAKE      FAIR      16  14  95 CALM      29.84R
CHETEK         FAIR      17  15  94 CALM      29.83R
LADYSMITH      FAIR      14  12  92 CALM      29.84R
EAU CLAIRE     FOG       22  21  96 S3        29.83R VSB 1/4
MENOMONIE      FAIR      22  20  96 CALM      29.84R
NEW RICHMOND   FAIR      22  21  96 CALM      29.83S
OSCEOLA        FAIR      21  21 100 CALM      29.86S
$$

WIZ003>005-009-010-017-018-201500-
NORTH CENTRAL WISCONSIN

CITY           SKY/WX    TMP DP  RH WIND       PRES   REMARKS
MANITOWISH WTR FAIR      13  13 100 CALM      29.77R FOG
ARBOR VITAE    FOG       19  18  93 CALM      29.77R VSB 1/4
WOODRUFF       FOG       19  18  93 CALM      29.77R VSB 1/4
RHINELANDER    FOG       21  21 100 SW3       29.79R VSB 1/2
EAGLE RIVER    FOG       16  15  96 CALM      29.75R VSB 1/4
LAND O LAKES   FAIR      11   8  89 CALM      29.76R
PHILLIPS       FAIR      13  12  96 CALM      29.79R FOG
TOMAHAWK       FAIR      18  16  93 CALM      29.79R FOG
MEDFORD        FOG       23  22  96 CALM      29.81R VSB 1/4
MERRILL          N/A     18  17  95 CALM      29.80S FOG
$$

WIZ029-030-035-036-043>047-201500-
CENTRAL WISCONSIN

CITY           SKY/WX    TMP DP  RH WIND       PRES   REMARKS
WAUSAU         FAIR      28  26  92 NW6       29.80R FOG     WCI  22
MOSINEE        MOCLDY    27  27 100 CALM      29.82R
MARSHFIELD     FAIR      27  26  96 N5        29.79R FOG     WCI  22
STEVENS POINT  FOG       23  23 100 CALM      29.81S VSB 1
WAUPACA        FAIR      30  27  89 CALM      29.82R
WAUTOMA        FAIR      22  21  96 CALM      29.84R
WISC RAPIDS    FAIR      24  21  88 CALM      29.84R FOG
CAMP DOUGLAS   FAIR      22  21  99 CALM      29.84R
$$

WIZ011>013-019>022-031-037>040-048>050-201500-
NORTHEAST WISCONSIN

CITY           SKY/WX    TMP DP  RH WIND       PRES   REMARKS
ANTIGO         FAIR      22  22  99 W5        29.78S FOG     WCI  16
SHAWANO        FAIR      30  26  85 CALM      29.80R
OCONTO         FAIR      30  26  86 CALM      29.81R
STURGEON BAY   FAIR      33  28  81 W7        29.81R WCI  27
GREEN BAY      FAIR      30  26  85 CALM      29.82R
MANITOWOC      FAIR      34  28  79 SW5       29.83R WCI  30
APPLETON       MOCLDY    28  25  86 SW5       29.80R WCI  23
CLINTONVILLE   FAIR      28  25  86 SW3       29.81R
OSHKOSH        FAIR      31  27  85 SW5       29.83R WCI  26
$$

WIZ032>034-041-042-053>061-201500-
SOUTHWEST WISCONSIN

CITY           SKY/WX    TMP DP  RH WIND       PRES   REMARKS
LA CROSSE      FAIR      24  22  91 CALM      29.86R FOG
SPARTA         FAIR      20  19  98 CALM      29.86R
VIROQUA        FAIR      31  31 100 SW3       29.83R
BOSCOBEL       FAIR      25  22  88 CALM      29.87R FOG
PRAIRIE DU CHI FAIR      26  23  91 CALM      29.86R
PLATTEVILLE    FAIR      28  28  96 S5        29.86R WCI  23
$$

WIZ056-057-062-063-064-067-068-201500-
SOUTH CENTRAL WISCONSIN

CITY           SKY/WX    TMP DP  RH WIND       PRES   REMARKS
REEDSBURG      FAIR      25  25 100 CALM      29.85R
BARABOO/DELLS  FAIR      28  25  87 CALM      29.84R
LONE ROCK      NOT AVBL
MINERAL POINT  FAIR      32  32 100 CALM      29.84R
MADISON        MOCLDY    25  22  88 CALM      29.86R
MIDDLETON      FAIR      28  26  91 CALM      29.85R
WATERTOWN      FAIR      24  24 100 CALM      29.84R
MONROE         FAIR      32  28  86 W10       29.84R WCI  24
JANESVILLE     CLEAR     32  30  93 CALM      29.86R
$$

WIZ051-052-058>065-066-070>072-201500-
SOUTHEAST WISCONSIN

CITY           SKY/WX    TMP DP  RH WIND       PRES   REMARKS
MILWAUKEE      MOCLDY    35  28  75 W5        29.85R WCI  31
WAUKESHA       CLEAR     30  25  80 W8        29.86R WCI  23
MILWAUKEE/TIMM CLEAR     32  25  74 W5        29.85R WCI  27
RACINE         FAIR      35  28  75 W7        29.86R WCI  29
BURLINGTON     FAIR      29  25  83 SW3       29.85S
KENOSHA        FAIR      33  27  78 SW7       29.85R WCI  27
FOND DU LAC    FAIR      32  25  75 SW6       29.84R WCI  26
SHEBOYGAN      FAIR      34  30  85 W9        29.83R WCI  27
WEST BEND      FAIR      30  28  93 CALM      29.84R
JUNEAU         FAIR      29  26  89 SW3       29.85R
$$

LSZ147-162-201500-
LAKE SUPERIOR

STATION/POSITION TIME  TEMP    WIND        PRES    WAVE
                       AIR SEA DIR/SP/G            HT/PER
                 (UTC) (F)     (DEG/KT/KT) (MB)    (FT/S)
DEVILS ISLAND    1300   33     230/ 13/ 14 1008.2R
SAXON HARBOR     1330   33     200/  8/  9 1008.5R
$$

LMZ867-665-643>646-201500-
LAKE MICHIGAN

STATION/POSITION TIME  TEMP    WIND        PRES    WAVE
                       AIR SEA DIR/SP/G            HT/PER
                 (UTC) (F)     (DEG/KT/KT) (MB)    (FT/S)
NORTHPORT PIER   1340   34     250/  9/ 17 1008.5R
KEWAUNEE LAKESHO 1330   37     280/  7/  9 1008.1R
SHEBOYGAN LAKESH 1300   37     260/  9/ 11 1009.9R
PORT WASHINGTON  1330   35     280/  9/ 13 1010.8S
MILWAUKEE LAKESH 1330   36     250/  8/  9   N/A
KENOSHA   LAKESH 1300   36     260/  6/  8 1010.8
$$

TC  - TEMPERATURE IN CELSIUS
VSB - VISIBILITY IN STATUTE MILES
WCI - WIND CHILL INDEX
HX  - HEAT INDEX




USA.gov is the U.S. government's official web portal to all federal, state and local government web resources and services.